QPF
0.02 0.01 0.02 0.01 0.01 0.01 0.01 0.01 0.01 0.01 0.01 0.02 0.02 0.02 0.02 0.02 0.02 0.02 0.02 0.02 0.03 0.04 0.05 0.05 0.04 0.04 0.05 0.05 0.05 0.04 0.05 0.04 0.04 0.03 0.03 0.05 0.07 0.08 0.09 0.06 0.04 0.02 0.06
0.00 0.01 0.01 0.01 0.00 0.00 0.00 0.00 0.01 0.01 0.01 0.02 0.01 0.02 0.02 0.02 0.02 0.02 0.03 0.03 0.03 0.04 0.05 0.05 0.03 0.04 0.03 0.03 0.02 0.02 0.03 0.04 0.07 0.07 0.05 0.04 0.05 0.05 0.05 0.03 0.02 0.02 0.05
0.00 0.01 0.01 0.01 0.00 0.00 0.00 0.00 0.00 0.00 0.01 0.01 0.02 0.02 0.02 0.03 0.03 0.03 0.03 0.04 0.04 0.04 0.04 0.03 0.03 0.03 0.02 0.02 0.02 0.02 0.02 0.04 0.08 0.07 0.04 0.03 0.04 0.05 0.06 0.04 0.02 0.03 0.04
0.00 0.00 0.00 0.00 0.00 0.00 0.00 0.00 0.00 0.00 0.00 0.01 0.01 0.01 0.02 0.03 0.03 0.04 0.03 0.03 0.03 0.03 0.03 0.03 0.03 0.01 0.01 0.02 0.03 0.03 0.02 0.03 0.05 0.03 0.01 0.01 0.02 0.04 0.04 0.04 0.03 0.03 0.03
0.00 0.00 0.00 0.00 0.00 0.00 0.00 0.01 0.00 0.00 0.00 0.00 0.01 0.01 0.02 0.03 0.02 0.04 0.03 0.02 0.02 0.02 0.02 0.03 0.03 0.02 0.01 0.02 0.04 0.04 0.04 0.03 0.03 0.01 0.00 0.01 0.03 0.05 0.04 0.03 0.03 0.04 0.04
0.00 0.00 0.00 0.00 0.00 0.00 0.00 0.00 0.00 0.00 0.00 0.00 0.00 0.01 0.01 0.03 0.02 0.04 0.03 0.02 0.01 0.01 0.01 0.02 0.02 0.02 0.02 0.02 0.04 0.04 0.05 0.03 0.01 0.01 0.01 0.01 0.03 0.04 0.03 0.03 0.03 0.04 0.03
0.00 0.00 0.00 0.00 0.00 0.00 0.00 0.00 0.00 0.00 0.00 0.00 0.00 0.01 0.01 0.02 0.03 0.03 0.02 0.01 0.01 0.01 0.01 0.02 0.02 0.02 0.03 0.03 0.04 0.05 0.05 0.03 0.01 0.00 0.00 0.00 0.01 0.03 0.03 0.04 0.04 0.03 0.02
0.00 0.00 0.00 0.00 0.00 0.00 0.00 0.00 0.00 0.00 0.00 0.00 0.00 0.01 0.01 0.02 0.04 0.03 0.01 0.01 0.01 0.01 0.02 0.02 0.02 0.03 0.04 0.04 0.04 0.05 0.03 0.01 0.00 0.01 0.00 0.01 0.02 0.03 0.02 0.03 0.04 0.04 0.03
0.00 0.00 0.00 0.00 0.00 0.00 0.00 0.00 0.00 0.00 0.00 0.01 0.00 0.01 0.01 0.01 0.02 0.02 0.01 0.01 0.01 0.01 0.01 0.01 0.01 0.02 0.03 0.04 0.04 0.05 0.03 0.02 0.01 0.01 0.01 0.01 0.03 0.03 0.02 0.02 0.03 0.03 0.01
0.02 0.01 0.00 0.00 0.00 0.00 0.00 0.00 0.00 0.01 0.01 0.01 0.00 0.01 0.01 0.01 0.01 0.01 0.01 0.01 0.01 0.01 0.01 0.01 0.02 0.03 0.03 0.04 0.05 0.05 0.05 0.02 0.00 0.00 0.00 0.01 0.02 0.01 0.01 0.02 0.02 0.02 0.02
0.04 0.03 0.01 0.00 0.00 0.00 0.00 0.01 0.01 0.01 0.01 0.01 0.01 0.01 0.01 0.00 0.00 0.00 0.00 0.01 0.01 0.01 0.01 0.01 0.02 0.03 0.03 0.04 0.05 0.06 0.04 0.02 0.01 0.00 0.00 0.01 0.02 0.01 0.01 0.01 0.02 0.02 0.02
0.02 0.02 0.03 0.01 0.01 0.00 0.00 0.00 0.01 0.01 0.01 0.00 0.00 0.00 0.00 0.00 0.00 0.00 0.00 0.01 0.01 0.02 0.02 0.02 0.02 0.02 0.01 0.01 0.04 0.04 0.01 0.02 0.03 0.01 0.01 0.01 0.01 0.01 0.01 0.01 0.02 0.01 0.01
0.02 0.02 0.05 0.05 0.03 0.01 0.00 0.00 0.00 0.00 0.01 0.00 0.00 0.00 0.00 0.00 0.00 0.00 0.00 0.01 0.01 0.01 0.01 0.01 0.01 0.01 0.01 0.01 0.01 0.01 0.01 0.00 0.00 0.00 0.01 0.01 0.02 0.02 0.01 0.01 0.01 0.01 0.01
0.06 0.05 0.06 0.08 0.04 0.01 0.01 0.01 0.01 0.01 0.00 0.00 0.00 0.00 0.00 0.00 0.00 0.00 0.00 0.00 0.00 0.00 0.00 0.00 0.00 0.01 0.01 0.01 0.01 0.02 0.01 0.00 0.00 0.00 0.01 0.01 0.02 0.02 0.02 0.02 0.04 0.02 0.01
0.09 0.09 0.08 0.11 0.04 0.02 0.01 0.01 0.01 0.02 0.02 0.01 0.01 0.00 0.00 0.00 0.00 0.00 0.00 0.00 0.00 0.00 0.00 0.00 0.01 0.01 0.01 0.02 0.01 0.01 0.01 0.00 0.00 0.00 0.01 0.02 0.02 0.02 0.03 0.03 0.03 0.02 0.02
0.06 0.08 0.08 0.13 0.08 0.04 0.03 0.02 0.01 0.01 0.01 0.03 0.03 0.02 0.01 0.01 0.00 0.00 0.00 0.00 0.00 0.00 0.01 0.01 0.01 0.01 0.01 0.01 0.02 0.01 0.01 0.01 0.00 0.00 0.00 0.01 0.01 0.01 0.03 0.04 0.04 0.04 0.03
0.05 0.05 0.05 0.07 0.07 0.05 0.04 0.03 0.01 0.01 0.01 0.02 0.04 0.03 0.02 0.01 0.01 0.00 0.00 0.01 0.00 0.00 0.01 0.01 0.01 0.02 0.02 0.02 0.02 0.01 0.01 0.01 0.00 0.01 0.01 0.01 0.01 0.01 0.02 0.03 0.04 0.05 0.04
0.07 0.06 0.05 0.04 0.07 0.06 0.05 0.05 0.03 0.02 0.02 0.01 0.01 0.03 0.04 0.03 0.02 0.01 0.01 0.02 0.01 0.01 0.02 0.03 0.04 0.03 0.02 0.02 0.03 0.02 0.02 0.01 0.01 0.01 0.01 0.01 0.01 0.02 0.03 0.05 0.05 0.06 0.07
0.12 0.09 0.07 0.07 0.07 0.08 0.08 0.08 0.07 0.06 0.06 0.04 0.02 0.02 0.03 0.04 0.04 0.03 0.02 0.02 0.02 0.02 0.03 0.03 0.03 0.03 0.03 0.03 0.03 0.03 0.02 0.02 0.01 0.01 0.01 0.01 0.02 0.01 0.01 0.03 0.05 0.05 0.07
0.15 0.12 0.12 0.11 0.08 0.08 0.09 0.10 0.10 0.09 0.09 0.08 0.06 0.04 0.03 0.03 0.03 0.03 0.03 0.02 0.02 0.02 0.03 0.04 0.04 0.05 0.04 0.05 0.06 0.05 0.04 0.03 0.03 0.02 0.02 0.02 0.02 0.01 0.02 0.01 0.02 0.03 0.06
0.12 0.14 0.14 0.11 0.10 0.11 0.09 0.09 0.09 0.09 0.09 0.09 0.08 0.08 0.06 0.04 0.03 0.03 0.04 0.03 0.03 0.03 0.04 0.05 0.06 0.05 0.04 0.04 0.06 0.05 0.05 0.04 0.04 0.04 0.04 0.05 0.02 0.02 0.03 0.03 0.02 0.01 0.02
0.10 0.09 0.11 0.11 0.11 0.13 0.12 0.10 0.12 0.15 0.15 0.13 0.12 0.09 0.09 0.07 0.05 0.05 0.04 0.03 0.03 0.03 0.04 0.04 0.04 0.04 0.04 0.03 0.03 0.04 0.04 0.04 0.02 0.02 0.04 0.05 0.03 0.03 0.04 0.03 0.01 0.01 0.01
0.09 0.09 0.09 0.09 0.12 0.17 0.18 0.17 0.18 0.21 0.21 0.17 0.12 0.10 0.08 0.05 0.07 0.07 0.05 0.04 0.04 0.04 0.03 0.03 0.04 0.03 0.03 0.03 0.02 0.03 0.01 0.01 0.01 0.01 0.03 0.04 0.03 0.03 0.03 0.03 0.02 0.02 0.02
0.09 0.11 0.11 0.12 0.15 0.20 0.23 0.19 0.18 0.17 0.15 0.10 0.11 0.11 0.10 0.08 0.08 0.07 0.06 0.06 0.06 0.05 0.04 0.04 0.04 0.04 0.03 0.03 0.02 0.01 0.00 0.00 0.00 0.01 0.02 0.02 0.02 0.02 0.02 0.02 0.02 0.02 0.02
0.09 0.13 0.14 0.15 0.19 0.25 0.25 0.19 0.18 0.13 0.10 0.10 0.12 0.12 0.11 0.11 0.10 0.09 0.09 0.08 0.06 0.04 0.03 0.03 0.04 0.04 0.03 0.02 0.01 0.01 0.01 0.01 0.00 0.00 0.01 0.01 0.01 0.01 0.01 0.02 0.01 0.01 0.02
0.14 0.17 0.18 0.16 0.16 0.22 0.23 0.21 0.18 0.15 0.10 0.09 0.09 0.09 0.08 0.11 0.11 0.09 0.07 0.07 0.06 0.04 0.03 0.02 0.03 0.03 0.02 0.02 0.01 0.01 0.01 0.01 0.00 0.00 0.00 0.01 0.01 0.00 0.00 0.01 0.01 0.01 0.01
MSLP
1011.18 1010.98 1010.96 1011.11 1011.38 1011.72 1012.03 1012.27 1012.40 1012.43 1012.39 1012.33 1012.32 1012.38 1012.54 1012.78 1013.07 1013.36 1013.60 1013.78 1013.88 1013.93 1013.95 1013.98 1014.04 1014.16 1014.32 1014.52 1014.73 1014.93 1015.10 1015.25 1015.37 1015.49 1015.61 1015.75 1015.90 1016.07 1016.25 1016.42 1016.59 1016.75 1016.91
1010.81 1010.74 1010.84 1011.10 1011.46 1011.85 1012.20 1012.45 1012.58 1012.61 1012.57 1012.53 1012.54 1012.65 1012.86 1013.13 1013.44 1013.74 1013.98 1014.14 1014.22 1014.26 1014.29 1014.33 1014.41 1014.54 1014.72 1014.92 1015.13 1015.31 1015.47 1015.61 1015.73 1015.85 1015.99 1016.15 1016.33 1016.52 1016.71 1016.89 1017.06 1017.22 1017.38
1010.42 1010.46 1010.67 1011.02 1011.46 1011.92 1012.30 1012.58 1012.73 1012.77 1012.76 1012.76 1012.82 1012.96 1013.20 1013.50 1013.81 1014.09 1014.31 1014.44 1014.51 1014.55 1014.58 1014.64 1014.75 1014.91 1015.11 1015.32 1015.53 1015.71 1015.86 1015.99 1016.12 1016.26 1016.42 1016.60 1016.80 1017.01 1017.20 1017.39 1017.55 1017.71 1017.87
1010.10 1010.23 1010.52 1010.95 1011.45 1011.95 1012.38 1012.69 1012.87 1012.94 1012.97 1013.01 1013.11 1013.29 1013.54 1013.84 1014.14 1014.40 1014.58 1014.70 1014.75 1014.79 1014.84 1014.93 1015.07 1015.26 1015.49 1015.72 1015.93 1016.12 1016.27 1016.41 1016.55 1016.71 1016.89 1017.09 1017.30 1017.51 1017.71 1017.88 1018.03 1018.18 1018.33
1009.93 1010.12 1010.47 1010.94 1011.49 1012.02 1012.47 1012.80 1013.00 1013.11 1013.18 1013.26 1013.39 1013.60 1013.86 1014.16 1014.44 1014.67 1014.82 1014.92 1014.97 1015.02 1015.09 1015.21 1015.39 1015.62 1015.87 1016.12 1016.34 1016.53 1016.69 1016.84 1017.00 1017.17 1017.37 1017.58 1017.80 1018.00 1018.18 1018.33 1018.47 1018.60 1018.75
1009.94 1010.17 1010.55 1011.05 1011.60 1012.14 1012.59 1012.92 1013.14 1013.27 1013.37 1013.48 1013.65 1013.88 1014.15 1014.44 1014.70 1014.91 1015.04 1015.13 1015.18 1015.25 1015.35 1015.51 1015.73 1015.99 1016.26 1016.52 1016.74 1016.93 1017.10 1017.26 1017.43 1017.62 1017.83 1018.05 1018.26 1018.45 1018.60 1018.73 1018.84 1018.96 1019.10
1010.13 1010.38 1010.78 1011.27 1011.81 1012.32 1012.75 1013.07 1013.28 1013.42 1013.54 1013.69 1013.88 1014.13 1014.41 1014.70 1014.95 1015.15 1015.27 1015.36 1015.43 1015.52 1015.65 1015.84 1016.08 1016.35 1016.63 1016.89 1017.11 1017.30 1017.47 1017.64 1017.82 1018.03 1018.25 1018.47 1018.67 1018.84 1018.97 1019.07 1019.16 1019.26 1019.40
1010.45 1010.72 1011.11 1011.58 1012.09 1012.56 1012.95 1013.23 1013.43 1013.57 1013.70 1013.87 1014.09 1014.36 1014.66 1014.96 1015.21 1015.40 1015.54 1015.63 1015.71 1015.82 1015.97 1016.18 1016.43 1016.70 1016.97 1017.22 1017.43 1017.61 1017.78 1017.96 1018.15 1018.37 1018.60 1018.82 1019.02 1019.17 1019.28 1019.36 1019.43 1019.53 1019.67
1010.82 1011.10 1011.48 1011.94 1012.40 1012.82 1013.16 1013.41 1013.58 1013.72 1013.86 1014.05 1014.30 1014.60 1014.92 1015.23 1015.49 1015.70 1015.84 1015.94 1016.03 1016.15 1016.31 1016.52 1016.76 1017.02 1017.27 1017.50 1017.69 1017.86 1018.03 1018.21 1018.42 1018.65 1018.89 1019.12 1019.32 1019.46 1019.56 1019.63 1019.69 1019.78 1019.93
1011.13 1011.44 1011.83 1012.27 1012.70 1013.08 1013.38 1013.59 1013.74 1013.87 1014.03 1014.24 1014.52 1014.85 1015.20 1015.53 1015.80 1016.02 1016.17 1016.27 1016.37 1016.49 1016.64 1016.84 1017.06 1017.30 1017.52 1017.72 1017.90 1018.06 1018.23 1018.42 1018.64 1018.89 1019.14 1019.38 1019.58 1019.73 1019.83 1019.90 1019.96 1020.05 1020.20
1011.34 1011.69 1012.10 1012.54 1012.96 1013.30 1013.56 1013.75 1013.89 1014.03 1014.21 1014.46 1014.76 1015.12 1015.49 1015.84 1016.13 1016.35 1016.50 1016.61 1016.70 1016.81 1016.95 1017.12 1017.32 1017.53 1017.74 1017.92 1018.08 1018.24 1018.41 1018.61 1018.84 1019.10 1019.36 1019.61 1019.83 1019.99 1020.10 1020.18 1020.25 1020.35 1020.50
1011.40 1011.81 1012.26 1012.72 1013.12 1013.46 1013.71 1013.89 1014.03 1014.19 1014.40 1014.67 1015.01 1015.39 1015.79 1016.15 1016.45 1016.67 1016.82 1016.92 1017.00 1017.10 1017.22 1017.37 1017.55 1017.74 1017.93 1018.10 1018.27 1018.43 1018.60 1018.81 1019.04 1019.30 1019.57 1019.83 1020.05 1020.23 1020.36 1020.46 1020.55 1020.66 1020.81
1011.33 1011.81 1012.30 1012.78 1013.20 1013.54 1013.79 1013.98 1014.15 1014.33 1014.57 1014.87 1015.24 1015.64 1016.05 1016.42 1016.72 1016.94 1017.09 1017.19 1017.26 1017.34 1017.45 1017.59 1017.76 1017.94 1018.13 1018.31 1018.48 1018.65 1018.83 1019.03 1019.26 1019.51 1019.77 1020.03 1020.25 1020.44 1020.60 1020.72 1020.84 1020.96 1021.12
1011.16 1011.70 1012.23 1012.74 1013.18 1013.53 1013.81 1014.02 1014.22 1014.44 1014.70 1015.03 1015.42 1015.84 1016.25 1016.62 1016.92 1017.14 1017.29 1017.39 1017.47 1017.55 1017.66 1017.79 1017.96 1018.15 1018.35 1018.54 1018.72 1018.90 1019.09 1019.28 1019.50 1019.73 1019.96 1020.19 1020.41 1020.60 1020.77 1020.92 1021.06 1021.21 1021.38
1010.94 1011.51 1012.08 1012.61 1013.07 1013.45 1013.76 1014.01 1014.25 1014.50 1014.79 1015.14 1015.53 1015.95 1016.36 1016.72 1017.03 1017.26 1017.42 1017.53 1017.62 1017.71 1017.83 1017.98 1018.17 1018.37 1018.59 1018.80 1019.01 1019.20 1019.38 1019.56 1019.74 1019.93 1020.13 1020.32 1020.51 1020.69 1020.86 1021.03 1021.20 1021.38 1021.55
1010.70 1011.29 1011.87 1012.42 1012.90 1013.31 1013.65 1013.94 1014.22 1014.50 1014.82 1015.17 1015.56 1015.97 1016.36 1016.72 1017.03 1017.27 1017.46 1017.60 1017.72 1017.85 1017.99 1018.17 1018.38 1018.61 1018.85 1019.08 1019.30 1019.50 1019.68 1019.84 1019.99 1020.12 1020.26 1020.40 1020.54 1020.70 1020.86 1021.04 1021.23 1021.42 1021.62
1010.45 1011.04 1011.62 1012.17 1012.67 1013.11 1013.50 1013.84 1014.15 1014.47 1014.79 1015.14 1015.52 1015.90 1016.28 1016.63 1016.94 1017.21 1017.43 1017.61 1017.78 1017.95 1018.13 1018.34 1018.57 1018.83 1019.09 1019.35 1019.59 1019.80 1019.97 1020.11 1020.21 1020.29 1020.36 1020.44 1020.53 1020.65 1020.79 1020.97 1021.16 1021.37 1021.58
1010.21 1010.77 1011.33 1011.88 1012.40 1012.88 1013.31 1013.70 1014.06 1014.40 1014.74 1015.07 1015.42 1015.77 1016.12 1016.46 1016.78 1017.07 1017.34 1017.58 1017.80 1018.02 1018.24 1018.49 1018.75 1019.02 1019.31 1019.59 1019.84 1020.06 1020.23 1020.35 1020.42 1020.45 1020.46 1020.47 1020.50 1020.57 1020.68 1020.83 1021.03 1021.24 1021.45
1009.94 1010.46 1011.00 1011.55 1012.09 1012.61 1013.10 1013.55 1013.96 1014.32 1014.66 1014.97 1015.28 1015.59 1015.91 1016.24 1016.56 1016.88 1017.19 1017.49 1017.77 1018.04 1018.31 1018.59 1018.87 1019.17 1019.47 1019.77 1020.04 1020.27 1020.45 1020.56 1020.61 1020.61 1020.57 1020.53 1020.50 1020.51 1020.57 1020.69 1020.86 1021.06 1021.26
1009.63 1010.11 1010.62 1011.17 1011.74 1012.31 1012.87 1013.38 1013.83 1014.22 1014.56 1014.85 1015.12 1015.39 1015.67 1015.97 1016.30 1016.65 1017.00 1017.35 1017.69 1018.01 1018.32 1018.62 1018.93 1019.24 1019.56 1019.87 1020.16 1020.42 1020.61 1020.74 1020.79 1020.77 1020.70 1020.62 1020.54 1020.49 1020.50 1020.57 1020.70 1020.87 1021.05
1009.24 1009.68 1010.18 1010.73 1011.34 1011.97 1012.58 1013.16 1013.66 1014.08 1014.42 1014.69 1014.93 1015.15 1015.40 1015.68 1016.00 1016.37 1016.75 1017.15 1017.54 1017.90 1018.25 1018.58 1018.90 1019.23 1019.56 1019.89 1020.21 1020.49 1020.72 1020.87 1020.94 1020.93 1020.86 1020.74 1020.63 1020.53 1020.48 1020.49 1020.57 1020.69 1020.83
1008.78 1009.19 1009.67 1010.23 1010.87 1011.55 1012.23 1012.87 1013.42 1013.87 1014.22 1014.48 1014.68 1014.87 1015.08 1015.34 1015.66 1016.03 1016.45 1016.88 1017.30 1017.71 1018.08 1018.44 1018.78 1019.12 1019.47 1019.82 1020.17 1020.50 1020.76 1020.96 1021.07 1021.08 1021.01 1020.89 1020.74 1020.61 1020.50 1020.45 1020.46 1020.51 1020.61
1008.27 1008.64 1009.10 1009.67 1010.34 1011.06 1011.78 1012.47 1013.07 1013.55 1013.91 1014.16 1014.35 1014.51 1014.69 1014.93 1015.24 1015.62 1016.06 1016.52 1016.97 1017.41 1017.81 1018.19 1018.55 1018.91 1019.28 1019.66 1020.05 1020.41 1020.73 1020.97 1021.13 1021.18 1021.13 1021.01 1020.85 1020.68 1020.53 1020.41 1020.35 1020.34 1020.37
1007.75 1008.08 1008.52 1009.08 1009.75 1010.49 1011.24 1011.96 1012.59 1013.09 1013.46 1013.72 1013.89 1014.04 1014.21 1014.44 1014.75 1015.13 1015.58 1016.06 1016.53 1016.99 1017.42 1017.82 1018.21 1018.59 1018.99 1019.40 1019.82 1020.23 1020.59 1020.89 1021.09 1021.18 1021.17 1021.07 1020.90 1020.71 1020.52 1020.35 1020.23 1020.15 1020.12
1007.26 1007.57 1007.97 1008.50 1009.14 1009.86 1010.62 1011.33 1011.97 1012.48 1012.86 1013.12 1013.30 1013.46 1013.62 1013.85 1014.16 1014.55 1015.01 1015.50 1016.00 1016.48 1016.93 1017.36 1017.77 1018.18 1018.60 1019.05 1019.50 1019.95 1020.35 1020.69 1020.94 1021.07 1021.09 1021.02 1020.86 1020.67 1020.46 1020.25 1020.08 1019.94 1019.85
1006.88 1007.14 1007.50 1007.98 1008.57 1009.24 1009.94 1010.63 1011.24 1011.75 1012.13 1012.39 1012.58 1012.74 1012.92 1013.16 1013.48 1013.88 1014.35 1014.85 1015.37 1015.87 1016.35 1016.80 1017.24 1017.69 1018.14 1018.62 1019.10 1019.57 1020.01 1020.38 1020.66 1020.83 1020.90 1020.85 1020.73 1020.55 1020.34 1020.12 1019.91 1019.73 1019.59
Thickness
5782 5784 5784 5782 5781 5781 5780 5780 5780 5780 5779 5779 5778 5778 5777 5776 5775 5774 5773 5772 5771 5770 5769 5768 5767 5765 5763 5762 5760 5758 5757 5755 5754 5752 5751 5749 5748 5746 5745 5743 5741 5740 5738
5788 5785 5784 5782 5780 5779 5779 5778 5778 5778 5778 5777 5776 5776 5775 5774 5774 5773 5772 5771 5770 5769 5767 5766 5764 5763 5761 5760 5758 5756 5755 5753 5752 5750 5749 5747 5746 5744 5743 5741 5739 5738 5736
5789 5786 5783 5781 5779 5778 5777 5776 5776 5776 5776 5775 5775 5774 5773 5773 5772 5771 5770 5769 5768 5767 5765 5764 5762 5761 5759 5757 5756 5754 5753 5751 5750 5748 5746 5745 5743 5742 5741 5739 5738 5736 5735
5788 5785 5783 5780 5778 5777 5776 5775 5774 5774 5774 5774 5773 5772 5771 5771 5770 5770 5768 5767 5766 5764 5763 5761 5760 5759 5757 5755 5753 5752 5750 5749 5747 5746 5744 5743 5742 5740 5739 5737 5736 5734 5733
5787 5784 5782 5779 5777 5776 5774 5773 5773 5772 5772 5772 5771 5771 5770 5769 5768 5768 5766 5765 5763 5762 5761 5759 5758 5757 5755 5753 5751 5750 5748 5747 5745 5743 5742 5741 5740 5738 5737 5735 5733 5732 5731
5785 5783 5781 5778 5776 5774 5773 5772 5771 5771 5771 5770 5770 5769 5768 5767 5766 5766 5764 5763 5761 5760 5759 5757 5756 5754 5753 5751 5750 5748 5746 5745 5743 5741 5740 5739 5738 5736 5735 5733 5732 5730 5728
5784 5782 5780 5777 5775 5773 5771 5770 5770 5769 5769 5768 5768 5767 5766 5766 5764 5763 5762 5760 5759 5758 5756 5755 5754 5752 5751 5749 5748 5746 5744 5742 5741 5740 5739 5737 5736 5735 5733 5731 5730 5728 5727
5783 5780 5778 5776 5774 5772 5770 5769 5768 5768 5767 5766 5766 5765 5764 5763 5762 5761 5759 5758 5756 5755 5754 5753 5752 5750 5749 5748 5746 5745 5743 5741 5739 5738 5737 5736 5734 5733 5731 5730 5728 5727 5725
5781 5779 5776 5774 5772 5770 5769 5768 5767 5766 5765 5764 5763 5762 5761 5761 5760 5758 5757 5755 5754 5753 5752 5750 5749 5748 5747 5746 5745 5743 5742 5740 5738 5736 5735 5734 5733 5731 5730 5728 5726 5725 5723
5778 5776 5774 5772 5770 5769 5767 5766 5765 5764 5763 5762 5761 5760 5759 5758 5757 5756 5754 5753 5752 5751 5749 5748 5747 5746 5745 5744 5743 5742 5740 5738 5737 5735 5734 5732 5731 5730 5728 5726 5725 5723 5721
5774 5773 5772 5770 5768 5766 5765 5764 5763 5762 5761 5760 5759 5757 5756 5755 5754 5753 5752 5751 5750 5749 5747 5746 5745 5744 5744 5743 5741 5740 5738 5736 5735 5733 5732 5731 5730 5728 5726 5725 5723 5721 5719
5772 5771 5770 5768 5766 5764 5763 5762 5761 5760 5759 5758 5757 5755 5754 5753 5751 5751 5750 5749 5748 5747 5746 5744 5743 5743 5742 5741 5740 5738 5736 5735 5733 5732 5730 5729 5728 5726 5725 5723 5721 5720 5718
5773 5771 5769 5766 5764 5763 5761 5760 5758 5757 5756 5755 5754 5753 5751 5750 5749 5748 5748 5747 5746 5745 5744 5743 5742 5741 5740 5739 5738 5736 5735 5733 5732 5730 5729 5727 5726 5725 5723 5722 5720 5718 5717
5772 5770 5768 5765 5763 5761 5759 5758 5756 5755 5754 5753 5752 5751 5749 5748 5746 5746 5745 5744 5744 5743 5742 5741 5740 5739 5738 5737 5736 5735 5733 5731 5730 5728 5727 5726 5725 5723 5722 5720 5719 5717 5716
5772 5769 5767 5764 5762 5759 5757 5756 5754 5752 5751 5750 5749 5748 5747 5745 5744 5743 5743 5742 5742 5741 5740 5739 5738 5737 5736 5736 5734 5733 5731 5730 5729 5727 5726 5724 5723 5722 5720 5719 5717 5716 5715
5773 5770 5767 5763 5760 5758 5755 5754 5752 5750 5749 5748 5747 5746 5744 5743 5742 5741 5740 5740 5739 5739 5738 5737 5736 5735 5734 5734 5733 5731 5730 5728 5727 5726 5725 5723 5722 5720 5719 5717 5716 5715 5714
5774 5770 5766 5763 5759 5756 5754 5752 5750 5749 5747 5746 5745 5744 5743 5742 5741 5739 5738 5738 5737 5737 5736 5735 5734 5733 5732 5731 5731 5730 5728 5727 5726 5725 5723 5722 5721 5719 5718 5716 5715 5714 5713
5773 5768 5765 5762 5758 5755 5752 5750 5748 5746 5745 5744 5743 5742 5741 5740 5739 5738 5737 5736 5735 5734 5734 5733 5731 5730 5729 5729 5728 5728 5727 5725 5724 5723 5722 5721 5719 5718 5717 5715 5714 5713 5712
5772 5767 5762 5761 5757 5754 5751 5748 5747 5745 5743 5742 5741 5740 5740 5739 5737 5736 5735 5734 5733 5732 5731 5731 5729 5728 5726 5726 5726 5725 5725 5724 5723 5722 5721 5720 5719 5717 5716 5715 5714 5713 5712
5771 5767 5762 5759 5756 5752 5749 5746 5744 5743 5741 5740 5739 5739 5739 5737 5736 5734 5733 5732 5731 5730 5729 5728 5727 5726 5725 5724 5724 5722 5721 5722 5721 5721 5720 5719 5718 5717 5716 5715 5714 5713 5712
5769 5766 5762 5758 5754 5750 5747 5743 5741 5740 5740 5738 5738 5737 5737 5736 5735 5733 5732 5731 5729 5728 5727 5727 5726 5724 5722 5722 5719 5716 5717 5719 5720 5720 5720 5719 5719 5718 5716 5715 5714 5713 5712
5769 5765 5762 5758 5754 5751 5748 5745 5743 5741 5738 5738 5737 5736 5736 5735 5734 5733 5731 5730 5729 5727 5726 5726 5725 5723 5721 5721 5718 5713 5710 5712 5717 5720 5720 5719 5719 5718 5717 5716 5715 5713 5712
5769 5766 5763 5758 5754 5749 5746 5742 5738 5735 5734 5732 5733 5734 5735 5734 5733 5732 5731 5730 5728 5727 5726 5725 5725 5723 5720 5719 5719 5716 5709 5707 5712 5716 5718 5719 5718 5718 5717 5717 5716 5714 5713
5771 5767 5762 5757 5753 5748 5744 5740 5737 5734 5732 5734 5734 5734 5734 5733 5732 5731 5730 5729 5728 5727 5726 5725 5725 5724 5721 5718 5717 5718 5717 5716 5711 5710 5715 5717 5718 5718 5718 5718 5717 5715 5714
5771 5766 5760 5755 5751 5746 5742 5740 5737 5735 5734 5734 5734 5732 5732 5732 5731 5730 5729 5729 5728 5727 5726 5725 5724 5724 5723 5720 5718 5717 5716 5714 5714 5712 5710 5713 5716 5718 5719 5718 5717 5716 5715
5768 5764 5759 5753 5749 5746 5742 5739 5737 5734 5733 5732 5731 5730 5729 5729 5729 5729 5728 5728 5728 5727 5726 5725 5725 5724 5723 5722 5720 5719 5718 5716 5714 5713 5710 5710 5712 5716 5718 5718 5718 5717 5716